20040323,000010,0,32.707190,-117.236750,20.793,32.902,NaN,NaN
20040323,000040,30,32.707190,-117.236750,20.798,32.902,NaN,NaN
20040323,000110,60,32.707190,-117.236750,20.801,32.903,NaN,NaN
20040323,000140,90,32.707190,-117.236760,20.804,32.904,NaN,NaN
20040323,000210,120,32.707180,-117.236760,20.807,32.904,NaN,NaN
20040323,000240,150,32.707190,-117.236740,20.811,32.904,NaN,NaN
20040323,000310,179,32.707190,-117.236750,20.813,32.904,NaN,NaN
20040323,000340,210,32.707190,-117.236750,20.817,32.905,NaN,NaN
20040323,000410,240,32.707190,-117.236750,20.821,32.905,NaN,NaN
20040323,000440,270,32.707190,-117.236760,20.824,32.906,NaN,NaN
20040323,000510,300,32.707180,-117.236760,20.827,32.907,NaN,NaN
20040323,000540,330,32.707190,-117.236740,20.830,32.907,NaN,NaN
20040323,000610,360,32.707180,-117.236750,20.834,32.907,NaN,NaN
20040323,000640,390,32.707180,-117.236750,20.837,32.909,NaN,NaN
20040323,000710,420,32.707190,-117.236760,20.841,32.909,NaN,NaN
20040323,000740,450,32.707200,-117.236760,20.844,32.909,NaN,NaN
20040323,000810,480,32.707190,-117.236750,20.848,32.910,NaN,NaN
20040323,000840,509,32.707210,-117.236740,20.851,32.911,NaN,NaN
20040323,000910,540,32.707200,-117.236750,20.853,32.911,NaN,NaN
20040323,000940,570,32.707190,-117.236740,20.857,32.912,NaN,NaN
20040323,001010,600,32.707200,-117.236740,20.860,32.912,NaN,NaN
20040323,001040,630,32.707200,-117.236740,20.864,32.913,NaN,NaN
20040323,001110,660,32.707200,-117.236750,20.867,32.914,NaN,NaN
20040323,001140,689,32.707200,-117.236760,20.870,32.914,NaN,NaN
20040323,001210,720,32.707190,-117.236760,20.873,32.915,NaN,NaN
20040323,001240,750,32.707200,-117.236760,20.876,32.915,NaN,NaN
20040323,001310,780,32.707190,-117.236750,20.879,32.915,NaN,NaN
20040323,001340,810,32.707190,-117.236740,20.882,32.915,NaN,NaN
20040323,001410,840,32.707190,-117.236750,20.886,32.917,NaN,NaN
20040323,001440,870,32.707190,-117.236740,20.889,32.917,NaN,NaN
20040323,001510,900,32.707190,-117.236760,20.891,32.918,NaN,NaN
20040323,001540,930,32.707190,-117.236740,20.895,32.918,NaN,NaN
20040323,001610,960,32.707190,-117.236740,20.898,32.919,NaN,NaN
20040323,001640,990,32.707200,-117.236760,20.900,32.920,NaN,NaN
20040323,001710,1019,32.707190,-117.236740,20.903,32.920,NaN,NaN
20040323,001740,1050,32.707190,-117.236760,20.907,32.921,NaN,NaN
20040323,001810,1080,32.707190,-117.236750,20.910,32.922,NaN,NaN
20040323,001840,1110,32.707190,-117.236740,20.912,32.923,NaN,NaN
20040323,001910,1140,32.707180,-117.236740,20.916,32.923,NaN,NaN
20040323,001940,1170,32.707190,-117.236740,20.918,32.924,NaN,NaN
20040323,002010,1199,32.707190,-117.236740,20.921,32.925,NaN,NaN
20040323,002040,1230,32.707190,-117.236740,20.924,32.925,NaN,NaN
20040323,002110,1260,32.707190,-117.236740,20.927,32.926,NaN,NaN
20040323,002140,1290,32.707190,-117.236740,20.930,32.926,NaN,NaN
20040323,002210,1320,32.707180,-117.236730,20.933,32.926,NaN,NaN
20040323,002240,1350,32.707180,-117.236740,20.936,32.927,NaN,NaN
20040323,002310,1380,32.707190,-117.236740,20.938,32.928,NaN,NaN
20040323,002340,1410,32.707190,-117.236740,20.941,32.928,NaN,NaN
20040323,002410,1440,32.707190,-117.236730,20.944,32.929,NaN,NaN
20040323,002440,1470,32.707200,-117.236740,20.947,32.929,NaN,NaN
20040323,002510,1500,32.707200,-117.236740,20.950,32.930,NaN,NaN
20040323,002540,1529,32.707190,-117.236740,20.953,32.931,NaN,NaN
20040323,002610,1560,32.707200,-117.236740,20.955,32.932,NaN,NaN
20040323,002640,1590,32.707190,-117.236740,20.958,32.933,NaN,NaN
20040323,002710,1620,32.707180,-117.236750,20.961,32.933,NaN,NaN
20040323,002740,1650,32.707180,-117.236750,20.963,32.934,NaN,NaN
20040323,002810,1680,32.707190,-117.236750,20.966,32.934,NaN,NaN
20040323,002840,1710,32.707190,-117.236740,20.969,32.935,NaN,NaN
20040323,002910,1740,32.707190,-117.236750,20.972,32.936,NaN,NaN
20040323,002940,1770,32.707180,-117.236750,20.974,32.936,NaN,NaN
20040323,003010,1800,32.707190,-117.236740,20.977,32.936,NaN,NaN
20040323,003040,1830,32.707180,-117.236740,20.980,32.937,NaN,NaN
20040323,003110,1859,32.707180,-117.236750,20.982,32.938,NaN,NaN
20040323,003140,1890,32.707180,-117.236750,20.984,32.939,NaN,NaN
20040323,003210,1920,32.707180,-117.236750,20.987,32.939,NaN,NaN
20040323,003240,1950,32.707180,-117.236740,20.990,32.940,NaN,NaN
20040323,003310,1980,32.707170,-117.236740,20.993,32.941,NaN,NaN
20040323,003340,2010,32.707180,-117.236750,20.995,32.941,NaN,NaN
20040323,003410,2039,32.707190,-117.236740,20.998,32.942,NaN,NaN
20040323,003440,2070,32.707190,-117.236750,21.000,32.943,NaN,NaN
20040323,003510,2100,32.707190,-117.236740,21.002,32.944,NaN,NaN
20040323,003540,2130,32.707190,-117.236750,21.004,32.945,NaN,NaN
20040323,003610,2160,32.707180,-117.236740,21.007,32.945,NaN,NaN
20040323,003640,2190,32.707180,-117.236750,21.009,32.946,NaN,NaN
20040323,003710,2220,32.707180,-117.236750,21.013,32.947,NaN,NaN
20040323,003740,2250,32.707180,-117.236750,21.015,32.947,NaN,NaN
20040323,003810,2280,32.707180,-117.236750,21.017,32.947,NaN,NaN
20040323,003840,2310,32.707180,-117.236750,21.019,32.948,NaN,NaN
20040323,003910,2340,32.707180,-117.236750,21.022,32.949,NaN,NaN
20040323,003940,2369,32.707180,-117.236760,21.024,32.950,NaN,NaN
20040323,004010,2400,32.707170,-117.236750,21.026,32.950,NaN,NaN
20040323,004040,2430,32.707180,-117.236750,21.028,32.951,NaN,NaN
20040323,004110,2460,32.707170,-117.236750,21.030,32.952,NaN,NaN
20040323,004140,2490,32.707180,-117.236750,21.033,32.953,NaN,NaN
20040323,004210,2520,32.707180,-117.236750,21.035,32.954,NaN,NaN
20040323,004240,2549,32.707170,-117.236750,21.038,32.954,NaN,NaN
20040323,004310,2580,32.707170,-117.236750,21.040,32.955,NaN,NaN
20040323,004340,2610,32.707170,-117.236750,21.042,32.956,NaN,NaN
20040323,004410,2640,32.707170,-117.236740,21.044,32.957,NaN,NaN
20040323,004440,2670,32.707170,-117.236750,21.046,32.958,NaN,NaN
20040323,004510,2700,32.707170,-117.236740,21.048,32.958,NaN,NaN
20040323,004540,2730,32.707180,-117.236750,21.050,32.958,NaN,NaN
20040323,004610,2760,32.707170,-117.236750,21.052,32.959,NaN,NaN
20040323,004640,2790,32.707170,-117.236750,21.055,32.960,NaN,NaN
20040323,004710,2820,32.707160,-117.236750,21.057,32.961,NaN,NaN
20040323,004740,2850,32.707160,-117.236750,21.058,32.962,NaN,NaN
20040323,004810,2879,32.707170,-117.236750,21.060,32.963,NaN,NaN
20040323,004840,2910,32.707160,-117.236750,21.062,32.963,NaN,NaN
20040323,004910,2940,32.707170,-117.236750,21.064,32.964,NaN,NaN
20040323,004940,2970,32.707170,-117.236750,21.066,32.965,NaN,NaN
20040323,005010,3000,32.707170,-117.236750,21.068,32.966,NaN,NaN
20040323,005040,3030,32.707170,-117.236750,21.069,32.967,NaN,NaN
20040323,005110,3060,32.707170,-117.236750,21.071,32.968,NaN,NaN
20040323,005140,3090,32.707170,-117.236750,21.073,32.969,NaN,NaN
20040323,005210,3120,32.707170,-117.236740,21.076,32.969,NaN,NaN
20040323,005240,3150,32.707170,-117.236740,21.077,32.970,NaN,NaN
20040323,005310,3180,32.707160,-117.236750,21.079,32.970,NaN,NaN
20040323,005340,3209,32.707160,-117.236750,21.081,32.971,NaN,NaN
20040323,005410,3240,32.707170,-117.236750,21.082,32.972,NaN,NaN
20040323,005440,3270,32.707170,-117.236750,21.084,32.973,NaN,NaN
20040323,005510,3300,32.707160,-117.236750,21.086,32.974,NaN,NaN
20040323,005540,3330,32.707160,-117.236750,21.087,32.975,NaN,NaN
20040323,005610,3360,32.707160,-117.236750,21.089,32.976,NaN,NaN
20040323,005640,3389,32.707160,-117.236750,21.091,32.977,NaN,NaN
20040323,005710,3420,32.707180,-117.236740,21.092,32.978,NaN,NaN
20040323,005740,3450,32.707170,-117.236740,21.094,32.979,NaN,NaN
20040323,005810,3480,32.707160,-117.236730,21.096,32.980,NaN,NaN
20040323,005840,3510,32.707200,-117.236730,21.098,32.980,NaN,NaN
20040323,005910,3540,32.707190,-117.236730,21.100,32.980,NaN,NaN
20040323,005940,3570,NaN,NaN,21.101,32.981,NaN,NaN
20040323,010010,3600,NaN,NaN,21.103,32.982,NaN,NaN
20040323,010040,3630,NaN,NaN,21.104,32.983,NaN,NaN
20040323,010110,3660,NaN,NaN,21.106,32.984,NaN,NaN
20040323,010140,3690,NaN,NaN,21.107,32.985,NaN,NaN
20040323,010210,3719,32.707200,-117.236760,21.109,32.986,NaN,NaN
20040323,010240,3750,32.707160,-117.236750,21.111,32.987,NaN,NaN
20040323,010310,3780,32.707160,-117.236760,21.112,32.987,NaN,NaN
20040323,010340,3810,32.707160,-117.236750,21.113,32.988,NaN,NaN
20040323,010410,3840,32.707160,-117.236750,21.115,32.989,NaN,NaN
20040323,010440,3870,32.707170,-117.236750,21.118,32.990,NaN,NaN
20040323,010510,3899,32.707160,-117.236760,21.119,32.991,NaN,NaN
20040323,010540,3930,32.707160,-117.236750,21.121,32.991,NaN,NaN
20040323,010610,3960,32.707170,-117.236750,21.122,32.992,NaN,NaN
20040323,010640,3990,32.707170,-117.236750,21.124,32.993,NaN,NaN
20040323,010711,4021,32.707170,-117.236750,21.125,32.993,NaN,NaN
20040323,010741,4051,32.707160,-117.236750,21.127,32.994,NaN,NaN
20040323,010811,4081,32.707160,-117.236750,21.129,32.995,NaN,NaN
20040323,010840,4110,32.707160,-117.236750,21.130,32.996,NaN,NaN
20040323,010911,4140,32.707170,-117.236740,21.131,32.997,NaN,NaN
20040323,010941,4171,32.707170,-117.236740,21.133,32.998,NaN,NaN
20040323,011010,4200,32.707160,-117.236750,21.134,32.998,NaN,NaN
20040323,011040,4229,32.707160,-117.236750,21.136,32.999,NaN,NaN
20040323,011111,4261,32.707160,-117.236750,21.137,33.000,NaN,NaN
20040323,011141,4291,32.707160,-117.236750,21.140,33.001,NaN,NaN
20040323,011211,4321,32.707170,-117.236750,21.141,33.002,NaN,NaN
20040323,011240,4350,32.707170,-117.236750,21.143,33.002,NaN,NaN
20040323,011310,4380,32.707170,-117.236740,21.144,33.002,NaN,NaN
20040323,011340,4410,32.707170,-117.236750,21.145,33.003,NaN,NaN
20040323,011411,4441,32.707170,-117.236750,21.147,33.004,NaN,NaN
20040323,011441,4470,32.707160,-117.236750,21.148,33.005,NaN,NaN
20040323,011511,4501,32.707160,-117.236750,21.150,33.006,NaN,NaN
20040323,011541,4531,32.707170,-117.236740,21.151,33.006,NaN,NaN
20040323,011611,4561,32.707170,-117.236750,21.152,33.007,NaN,NaN
20040323,011641,4591,32.707170,-117.236750,21.153,33.008,NaN,NaN
20040323,011711,4621,32.707170,-117.236760,21.155,33.009,NaN,NaN
20040323,011741,4650,32.707170,-117.236750,21.156,33.010,NaN,NaN
20040323,011811,4681,32.707170,-117.236750,21.157,33.011,NaN,NaN
20040323,011840,4710,32.707170,-117.236760,21.160,33.012,NaN,NaN
20040323,011911,4741,32.707170,-117.236760,21.161,33.012,NaN,NaN
20040323,011941,4771,32.707170,-117.236760,21.162,33.013,NaN,NaN
20040323,012010,4800,32.707160,-117.236760,21.164,33.013,NaN,NaN
20040323,012040,4830,32.707170,-117.236760,21.164,33.014,NaN,NaN
20040323,012111,4861,32.707160,-117.236750,21.166,33.015,NaN,NaN
20040323,012141,4891,32.707170,-117.236750,21.167,33.016,NaN,NaN
20040323,012211,4921,32.707190,-117.236750,21.168,33.017,NaN,NaN
20040323,012241,4951,32.707180,-117.236750,21.169,33.017,NaN,NaN
20040323,012311,4980,32.707190,-117.236750,21.170,33.018,NaN,NaN
20040323,012341,5011,32.707190,-117.236750,21.171,33.019,NaN,NaN
20040323,012411,5041,32.707190,-117.236750,21.173,33.020,NaN,NaN
20040323,012441,5071,32.707180,-117.236750,21.173,33.021,NaN,NaN
20040323,012511,5101,32.707180,-117.236750,21.174,33.022,NaN,NaN
20040323,012541,5131,32.707190,-117.236750,21.175,33.023,NaN,NaN
20040323,012610,5160,32.707200,-117.236750,21.176,33.024,NaN,NaN
20040323,012641,5191,32.707200,-117.236740,21.177,33.024,NaN,NaN
20040323,012710,5220,32.707190,-117.236750,21.178,33.025,NaN,NaN
20040323,012740,5249,32.707190,-117.236750,21.179,33.026,NaN,NaN
20040323,012810,5280,32.707190,-117.236750,21.181,33.026,NaN,NaN
20040323,012841,5310,32.707190,-117.236750,21.181,33.028,NaN,NaN
20040323,012911,5341,32.707180,-117.236750,21.182,33.028,NaN,NaN
20040323,012940,5370,32.707180,-117.236750,21.183,33.029,NaN,NaN
20040323,013010,5400,32.707180,-117.236750,21.184,33.030,NaN,NaN
20040323,013040,5430,32.707190,-117.236740,21.185,33.031,NaN,NaN
20040323,013110,5460,32.707190,-117.236750,21.186,33.032,NaN,NaN
20040323,013141,5490,32.707180,-117.236750,21.187,33.033,NaN,NaN
20040323,013210,5520,32.707180,-117.236750,21.187,33.034,NaN,NaN
20040323,013241,5551,32.707190,-117.236750,21.187,33.035,NaN,NaN
20040323,013311,5581,32.707190,-117.236750,21.188,33.035,NaN,NaN
20040323,013341,5611,32.707200,-117.236750,21.190,33.035,NaN,NaN
20040323,013411,5641,32.707190,-117.236750,21.190,33.036,NaN,NaN
20040323,013440,5670,32.707180,-117.236750,21.191,33.038,NaN,NaN
20040323,013511,5701,32.707180,-117.236750,21.191,33.039,NaN,NaN
20040323,013541,5731,32.707190,-117.236750,21.192,33.039,NaN,NaN
20040323,013611,5761,32.707200,-117.236750,21.192,33.041,NaN,NaN
20040323,013640,5790,32.707190,-117.236750,21.193,33.041,NaN,NaN
20040323,013711,5820,32.707180,-117.236750,21.194,33.042,NaN,NaN
20040323,013740,5850,32.707190,-117.236750,21.195,33.043,NaN,NaN
20040323,013811,5881,32.707200,-117.236750,21.195,33.044,NaN,NaN
20040323,013840,5909,32.707190,-117.236750,21.196,33.045,NaN,NaN
20040323,013911,5941,32.707190,-117.236760,21.196,33.045,NaN,NaN
20040323,013941,5971,32.707180,-117.236760,21.196,33.046,NaN,NaN
20040323,014010,6000,32.707180,-117.236760,21.197,33.047,NaN,NaN
20040323,014041,6031,32.707200,-117.236760,21.197,33.048,NaN,NaN
20040323,014111,6061,32.707200,-117.236760,21.198,33.049,NaN,NaN
20040323,014140,6089,32.707200,-117.236760,21.198,33.050,NaN,NaN
20040323,014211,6121,32.707190,-117.236760,21.198,33.051,NaN,NaN
20040323,014240,6150,32.707190,-117.236760,21.199,33.052,NaN,NaN
20040323,014311,6181,32.707200,-117.236760,21.199,33.053,NaN,NaN
20040323,014341,6211,32.707200,-117.236770,21.199,33.054,NaN,NaN
20040323,014411,6241,32.707190,-117.236760,21.200,33.055,NaN,NaN
20040323,014440,6270,32.707190,-117.236770,21.200,33.056,NaN,NaN
20040323,014511,6301,32.707200,-117.236760,21.200,33.056,NaN,NaN
20040323,014541,6330,32.707190,-117.236750,21.202,33.057,NaN,NaN
20040323,014611,6361,32.707190,-117.236760,21.202,33.058,NaN,NaN
20040323,014640,6390,32.707180,-117.236750,21.202,33.059,NaN,NaN
20040323,014711,6421,32.707190,-117.236750,21.203,33.060,NaN,NaN
20040323,014741,6451,32.707190,-117.236750,21.203,33.061,NaN,NaN
20040323,014811,6481,32.707190,-117.236750,21.203,33.062,NaN,NaN
20040323,014840,6510,32.707200,-117.236760,21.202,33.064,NaN,NaN
20040323,014911,6541,32.707190,-117.236760,21.203,33.065,NaN,NaN
20040323,014941,6571,32.707190,-117.236760,21.203,33.065,NaN,NaN
20040323,015011,6601,32.707190,-117.236760,21.203,33.067,NaN,NaN
20040323,015040,6630,32.707180,-117.236750,21.203,33.067,NaN,NaN
20040323,015110,6660,32.707190,-117.236760,21.203,33.068,NaN,NaN
20040323,015141,6691,32.707190,-117.236750,21.203,33.069,NaN,NaN
20040323,015210,6720,32.707190,-117.236760,21.203,33.070,NaN,NaN
20040323,015241,6751,32.707180,-117.236760,21.203,33.071,NaN,NaN
20040323,015311,6781,32.707180,-117.236760,21.203,33.072,NaN,NaN
20040323,015341,6811,32.707190,-117.236750,21.203,33.073,NaN,NaN
20040323,015410,6840,32.707190,-117.236750,21.204,33.074,NaN,NaN
20040323,015440,6870,32.707190,-117.236760,21.203,33.075,NaN,NaN
20040323,015511,6901,32.707190,-117.236760,21.203,33.076,NaN,NaN
20040323,015540,6929,32.707190,-117.236760,21.203,33.077,NaN,NaN
20040323,015611,6961,32.707190,-117.236760,21.203,33.078,NaN,NaN
20040323,015641,6991,32.707180,-117.236760,21.203,33.078,NaN,NaN
20040323,015711,7021,32.707180,-117.236760,21.202,33.080,NaN,NaN
20040323,015741,7051,32.707170,-117.236760,21.202,33.081,NaN,NaN
20040323,015810,7080,32.707180,-117.236760,21.203,33.081,NaN,NaN
20040323,015841,7111,32.707180,-117.236760,21.202,33.083,NaN,NaN
20040323,015911,7141,32.707180,-117.236770,21.202,33.084,NaN,NaN
20040323,015941,7170,32.707170,-117.236760,21.202,33.085,NaN,NaN
20040323,020011,7201,32.707180,-117.236760,21.202,33.086,NaN,NaN
20040323,020041,7231,32.707180,-117.236760,21.200,33.087,NaN,NaN
20040323,020111,7261,32.707180,-117.236760,21.200,33.088,NaN,NaN
20040323,020141,7291,32.707180,-117.236760,21.200,33.089,NaN,NaN
20040323,020210,7320,32.707170,-117.236760,21.199,33.089,NaN,NaN
20040323,020240,7350,32.707170,-117.236760,21.200,33.090,NaN,NaN
20040323,020311,7381,32.707180,-117.236760,21.199,33.091,NaN,NaN
20040323,020341,7411,32.707180,-117.236760,21.199,33.092,NaN,NaN
20040323,020410,7439,32.707180,-117.236760,21.199,33.093,NaN,NaN
20040323,020441,7471,32.707180,-117.236760,21.198,33.094,NaN,NaN
20040323,020511,7501,32.707180,-117.236760,21.198,33.095,NaN,NaN
20040323,020542,7532,32.707180,-117.236750,21.198,33.096,NaN,NaN
20040323,020612,7562,32.707170,-117.236760,21.198,33.097,NaN,NaN
20040323,020641,7591,32.707170,-117.236760,21.197,33.099,NaN,NaN
20040323,020712,7622,32.707180,-117.236760,21.197,33.099,NaN,NaN
20040323,020742,7652,32.707180,-117.236760,21.197,33.100,NaN,NaN
20040323,020811,7680,32.707180,-117.236760,21.196,33.101,NaN,NaN
20040323,020842,7712,32.707180,-117.236760,21.196,33.101,NaN,NaN
20040323,020912,7742,32.707180,-117.236760,21.196,33.102,NaN,NaN
20040323,020942,7772,32.707170,-117.236760,21.196,33.103,NaN,NaN
20040323,021011,7801,32.707180,-117.236760,21.195,33.105,NaN,NaN
20040323,021042,7832,32.707180,-117.236760,21.195,33.106,NaN,NaN
20040323,021112,7862,32.707180,-117.236760,21.194,33.107,NaN,NaN
20040323,021142,7892,32.707180,-117.236760,21.194,33.108,NaN,NaN
20040323,021212,7921,32.707180,-117.236760,21.194,33.109,NaN,NaN
20040323,021242,7952,32.707180,-117.236760,21.193,33.110,NaN,NaN
20040323,021312,7982,32.707180,-117.236760,21.193,33.110,NaN,NaN
20040323,021342,8012,32.707180,-117.236760,21.192,33.111,NaN,NaN
20040323,021412,8042,32.707180,-117.236760,21.192,33.111,NaN,NaN
20040323,021442,8072,32.707180,-117.236760,21.192,33.112,NaN,NaN
20040323,021512,8101,32.707180,-117.236760,21.192,33.113,NaN,NaN
20040323,021542,8132,32.707180,-117.236760,21.191,33.114,NaN,NaN
20040323,021612,8162,32.707170,-117.236760,21.190,33.116,NaN,NaN
20040323,021642,8192,32.707180,-117.236760,21.190,33.117,NaN,NaN
20040323,021712,8222,32.707180,-117.236760,21.190,33.117,NaN,NaN
20040323,021742,8252,32.707180,-117.236760,21.189,33.118,NaN,NaN
20040323,021812,8282,32.707170,-117.236760,21.189,33.119,NaN,NaN
20040323,021842,8312,32.707180,-117.236760,21.189,33.120,NaN,NaN
20040323,021912,8342,32.707180,-117.236760,21.188,33.121,NaN,NaN
20040323,021942,8372,32.707180,-117.236760,21.188,33.122,NaN,NaN
20040323,022012,8402,32.707180,-117.236760,21.187,33.122,NaN,NaN
20040323,022042,8431,32.707180,-117.236760,21.187,33.123,NaN,NaN
20040323,022112,8462,32.707170,-117.236760,21.186,33.124,NaN,NaN
20040323,022142,8492,32.707170,-117.236760,21.186,33.125,NaN,NaN
20040323,022212,8522,32.707180,-117.236760,21.185,33.126,NaN,NaN
20040323,022242,8552,32.707180,-117.236760,21.184,33.127,NaN,NaN
20040323,022312,8582,32.707170,-117.236760,21.184,33.127,NaN,NaN
20040323,022342,8611,32.707180,-117.236760,21.184,33.128,NaN,NaN
20040323,022412,8642,32.707180,-117.236750,21.183,33.129,NaN,NaN
20040323,022442,8672,32.707180,-117.236760,21.182,33.130,NaN,NaN
20040323,022512,8702,32.707180,-117.236760,21.182,33.131,NaN,NaN
20040323,022542,8732,32.707180,-117.236760,21.181,33.132,NaN,NaN
20040323,022612,8762,32.707170,-117.236760,21.181,33.133,NaN,NaN
20040323,022642,8792,32.707180,-117.236760,21.181,33.133,NaN,NaN
20040323,022712,8822,32.707180,-117.236760,21.179,33.133,NaN,NaN
20040323,022742,8852,32.707170,-117.236760,21.179,33.134,NaN,NaN
20040323,022812,8882,32.707180,-117.236760,21.178,33.135,NaN,NaN
20040323,022842,8912,32.707180,-117.236760,21.178,33.136,NaN,NaN
20040323,022912,8941,32.707180,-117.236760,21.177,33.137,NaN,NaN
20040323,022942,8972,32.707180,-117.236750,21.177,33.138,NaN,NaN
20040323,023012,9002,32.707180,-117.236760,21.176,33.139,NaN,NaN
20040323,023042,9032,32.707170,-117.236760,21.175,33.140,NaN,NaN
20040323,023112,9062,32.707170,-117.236750,21.175,33.140,NaN,NaN
20040323,023142,9092,32.707170,-117.236760,21.174,33.141,NaN,NaN
20040323,023212,9122,32.707170,-117.236760,21.174,33.142,NaN,NaN
20040323,023242,9152,32.707180,-117.236760,21.173,33.143,NaN,NaN
20040323,023312,9182,32.707180,-117.236760,21.172,33.144,NaN,NaN
20040323,023342,9212,32.707180,-117.236760,21.172,33.144,NaN,NaN
20040323,023412,9242,32.707180,-117.236760,21.171,33.145,NaN,NaN
20040323,023442,9271,32.707180,-117.236760,21.171,33.145,NaN,NaN
20040323,023512,9302,32.707180,-117.236760,21.170,33.146,NaN,NaN
20040323,023542,9332,32.707180,-117.236760,21.169,33.147,NaN,NaN
20040323,023612,9362,32.707180,-117.236760,21.168,33.148,NaN,NaN
20040323,023642,9392,32.707180,-117.236760,21.168,33.149,NaN,NaN
20040323,023712,9422,32.707180,-117.236760,21.168,33.149,NaN,NaN
20040323,023742,9451,32.707190,-117.236760,21.167,33.150,NaN,NaN
20040323,023812,9482,32.707180,-117.236770,21.166,33.151,NaN,NaN
20040323,023842,9512,32.707190,-117.236760,21.166,33.152,NaN,NaN
20040323,023912,9542,32.707190,-117.236760,21.165,33.153,NaN,NaN
20040323,023942,9572,32.707180,-117.236760,21.164,33.153,NaN,NaN
20040323,024012,9602,32.707180,-117.236760,21.164,33.154,NaN,NaN
20040323,024042,9632,32.707180,-117.236760,21.163,33.154,NaN,NaN
20040323,024112,9662,32.707180,-117.236760,21.162,33.155,NaN,NaN
20040323,024142,9692,32.707180,-117.236760,21.162,33.156,NaN,NaN
20040323,024212,9722,32.707190,-117.236760,21.161,33.156,NaN,NaN
20040323,024242,9752,32.707180,-117.236760,21.160,33.157,NaN,NaN
20040323,024312,9781,32.707180,-117.236760,21.160,33.158,NaN,NaN
20040323,024342,9812,32.707180,-117.236760,21.158,33.159,NaN,NaN
20040323,024412,9842,32.707190,-117.236770,21.157,33.159,NaN,NaN
20040323,024442,9872,32.707180,-117.236760,21.156,33.160,NaN,NaN
20040323,024512,9902,32.707180,-117.236760,21.156,33.161,NaN,NaN
20040323,024542,9932,32.707180,-117.236760,21.155,33.162,NaN,NaN
20040323,024612,9961,32.707180,-117.236760,21.154,33.163,NaN,NaN
20040323,024642,9992,32.707170,-117.236760,21.153,33.164,NaN,NaN
20040323,024712,10022,32.707180,-117.236760,21.152,33.165,NaN,NaN
20040323,024742,10052,32.707190,-117.236750,21.151,33.165,NaN,NaN
20040323,024812,10082,32.707180,-117.236750,21.150,33.166,NaN,NaN
20040323,024842,10112,32.707190,-117.236750,21.149,33.166,NaN,NaN
20040323,024912,10142,32.707190,-117.236740,21.148,33.167,NaN,NaN
20040323,024942,10172,32.707190,-117.236740,21.146,33.168,NaN,NaN
20040323,025012,10202,32.707200,-117.236750,21.146,33.169,NaN,NaN
20040323,025042,10232,32.707200,-117.236740,21.144,33.170,NaN,NaN
20040323,025112,10262,32.707190,-117.236740,21.142,33.171,NaN,NaN
20040323,025142,10291,32.707200,-117.236740,21.142,33.171,NaN,NaN
20040323,025212,10322,32.707200,-117.236740,21.141,33.172,NaN,NaN
20040323,025242,10352,32.707190,-117.236750,21.140,33.173,NaN,NaN
20040323,025312,10382,32.707190,-117.236760,21.139,33.174,NaN,NaN
20040323,025342,10412,32.707180,-117.236770,21.136,33.175,NaN,NaN
20040323,025412,10442,32.707180,-117.236770,21.135,33.176,NaN,NaN
20040323,025442,10472,32.707190,-117.236760,21.134,33.176,NaN,NaN
20040323,025512,10502,32.707190,-117.236770,21.132,33.177,NaN,NaN
20040323,025542,10532,32.707190,-117.236770,21.131,33.178,NaN,NaN
20040323,025612,10562,32.707190,-117.236770,21.130,33.178,NaN,NaN
20040323,025642,10592,32.707190,-117.236770,21.129,33.179,NaN,NaN
20040323,025712,10621,32.707180,-117.236770,21.127,33.180,NaN,NaN
20040323,025742,10652,32.707190,-117.236770,21.126,33.181,NaN,NaN
20040323,025812,10682,32.707180,-117.236770,21.125,33.182,NaN,NaN
20040323,025842,10712,32.707180,-117.236770,21.124,33.183,NaN,NaN
20040323,025912,10742,32.707180,-117.236770,21.122,33.184,NaN,NaN
20040323,025942,10772,32.707180,-117.236770,21.121,33.185,NaN,NaN
20040323,030012,10801,32.707180,-117.236770,21.119,33.186,NaN,NaN
20040323,030042,10832,32.707180,-117.236770,21.118,33.186,NaN,NaN
20040323,030112,10862,32.707190,-117.236770,21.115,33.187,NaN,NaN
20040323,030142,10892,32.707190,-117.236770,21.114,33.188,NaN,NaN